Date,TemperatureHighF,TemperatureAvgF,TemperatureLowF,DewpointHighF,DewpointAvgF,DewpointLowF,HumidityHigh,HumidityAvg,HumidityLow,PressureMaxIn,PressureMinIn,WindSpeedMaxMPH,WindSpeedAvgMPH,GustSpeedMaxMPH,PrecipitationSumIn
2012-5-1,68,63,59,58,57,54,96,81,65,29.92,29.81,5,2,7,0.00
2012-5-2,84,70,58,67,64,58,99,82,50,29.84,29.65,10,2,10,0.19
2012-5-3,82,72,65,75,69,65,99,90,70,29.78,29.69,7,1,7,0.59
2012-5-4,66,62,55,66,59,51,99,91,77,30.01,29.73,11,2,11,0.00
2012-5-5,65,58,52,59,55,52,98,90,79,30.05,29.92,9,3,9,0.01
2012-5-6,66,58,53,64,57,52,99,96,90,30.02,29.84,16,2,16,0.87
2012-5-7,72,60,53,60,55,50,99,84,55,29.91,29.76,10,2,11,0.00
2012-5-8,70,59,52,51,48,45,86,68,43,29.86,29.80,14,2,14,0.00
2012-5-9,67,55,46,50,46,40,95,73,45,29.97,29.85,11,3,12,0.00
2012-5-10,76,58,40,48,41,32,99,59,24,30.03,29.91,7,1,7,0.00
2012-5-11,83,65,48,59,49,35,75,56,41,30.05,29.91,14,2,14,0.00
2012-5-12,70,61,53,55,50,41,82,66,48,30.26,30.05,11,3,11,0.00
2012-5-13,78,61,45,50,43,33,96,57,24,30.29,30.06,7,1,8,0.00
2012-5-14,85,64,43,49,44,38,97,56,22,30.12,29.88,8,1,8,0.00
2012-5-15,89,70,55,57,49,41,74,50,26,29.90,29.58,16,3,16,0.00
2012-5-16,74,58,42,47,42,34,94,58,26,30.14,29.90,8,2,8,0.00
2012-5-17,81,63,45,48,43,37,76,50,26,30.21,29.93,8,1,8,0.00
2012-5-18,92,69,51,55,48,43,75,50,25,30.04,29.75,6,1,8,0.00
2012-5-19,95,74,54,64,56,46,83,57,32,29.94,29.71,8,1,8,0.00
2012-5-20,91,74,58,67,60,50,79,64,40,30.00,29.66,13,3,14,0.00
2012-5-21,76,63,51,50,45,40,81,56,29,30.20,30.00,14,4,14,0.00
2012-5-22,80,60,43,48,44,40,98,61,27,30.14,29.85,6,1,6,0.00
2012-5-23,86,68,53,54,47,42,72,49,26,29.93,29.57,6,2,6,0.00
2012-5-24,94,77,62,67,57,46,91,53,35,29.65,29.20,14,3,17,0.02
2012-5-25,79,66,58,65,57,53,95,74,43,30.25,29.46,11,2,11,0.01
2012-5-26,79,66,59,67,60,57,99,84,64,30.15,29.93,10,2,10,0.44
2012-5-27,98,79,66,76,66,60,88,66,32,29.94,29.50,9,2,9,0.00
2012-5-28,88,76,66,71,68,60,99,77,51,30.03,29.83,11,2,11,0.14
2012-5-29,78,68,56,60,52,46,92,59,33,30.22,30.03,19,3,19,0.01
2012-5-30,66,59,53,51,48,44,86,68,52,30.41,30.21,10,3,11,0.00
2012-5-31,56,51,46,49,45,39,99,81,56,30.52,30.41,9,2,9,0.37
2012-6-1,70,59,50,47,44,39,83,59,35,30.43,30.15,16,4,16,0.00
2012-6-2,79,65,54,51,46,41,74,53,31,30.17,30.05,11,3,11,0.00
2012-6-3,83,68,51,58,53,48,90,62,33,30.24,30.09,9,2,9,0.01
2012-6-4,86,70,61,60,56,51,93,64,36,30.26,30.13,8,1,8,0.00
2012-6-5,78,66,54,58,53,47,85,65,44,30.40,30.24,11,1,11,0.00
2012-6-6,81,64,47,54,50,46,99,66,34,30.51,30.37,6,1,6,0.00
2012-6-7,85,66,50,57,52,48,95,66,32,30.53,30.33,8,1,8,0.00
2012-6-8,90,74,58,62,58,54,88,60,34,30.40,30.10,9,2,29,0.00
2012-6-9,93,76,63,62,58,55,79,56,32,30.22,30.00,8,2,8,0.00
2012-6-10,94,79,66,68,62,56,81,58,36,30.19,29.98,9,2,10,0.00
2012-6-11,88,77,67,72,65,56,96,68,50,30.13,29.97,14,2,14,0.08
2012-6-12,73,67,54,51,48,46,74,52,42,29.99,29.92,7,3,7,0.08
2012-6-13,80,64,48,55,49,45,97,61,37,30.08,29.87,5,1,5,0.00
2012-6-14,87,71,53,62,54,42,77,56,39,29.99,29.69,6,1,7,0.00
2012-6-15,96,79,62,65,60,53,77,54,33,29.86,29.66,6,1,6,0.00
2012-6-16,89,78,71,73,64,56,88,63,51,29.73,29.51,10,2,10,0.02
2012-6-17,91,77,62,69,61,53,97,62,30,29.66,29.47,10,2,10,0.00
2012-6-18,97,83,72,73,70,61,86,66,45,29.47,29.21,12,3,12,0.00
2012-6-19,98,86,76,72,70,68,75,61,42,29.56,29.39,11,3,11,0.00
2012-6-20,98,85,76,72,70,67,80,62,42,29.63,29.38,11,3,11,0.00
2012-6-21,86,75,67,71,62,56,99,69,39,29.75,29.44,13,3,13,0.13
2012-6-22,87,74,64,61,58,54,83,59,34,29.82,29.66,11,2,11,0.00
2012-6-23,84,72,56,66,60,55,99,70,44,29.84,29.69,4,0,4,0.00
2012-6-24,92,76,62,68,64,58,96,70,43,29.79,29.62,8,2,8,0.00
2012-6-25,82,68,56,58,49,46,72,52,30,29.99,29.77,14,3,14,0.00
2012-6-26,89,70,49,57,52,46,93,58,31,29.98,29.67,5,1,7,0.00
2012-6-27,98,79,62,68,61,55,77,56,34,29.73,29.44,8,2,8,0.00
2012-6-28,97,87,71,80,70,54,86,60,34,29.63,29.47,11,2,11,0.00
2012-6-29,94,77,61,68,62,53,96,63,26,29.74,29.51,8,1,8,0.00
2012-6-30,97,80,67,71,67,64,99,69,36,29.59,29.51,7,1,7,0.00
2012-7-1,98,81,65,73,67,62,93,66,37,29.71,29.58,6,1,6,0.00
2012-7-2,101,84,71,77,72,68,92,69,42,30.41,29.58,8,1,8,0.00
2012-7-3,101,87,77,76,73,68,85,65,40,29.65,29.48,11,2,11,0.00
2012-7-4,104,86,78,76,73,69,87,66,35,29.58,29.51,7,1,7,0.00
2012-7-5,104,86,75,76,74,71,91,69,35,29.64,29.57,8,1,8,0.01
2012-7-6,104,87,78,79,74,67,94,67,34,29.99,29.63,5,1,10,0.19
2012-7-7,91,83,75,75,70,60,85,66,51,30.10,29.97,13,3,13,0.01
2012-7-8,92,78,65,63,59,55,82,55,32,30.19,30.00,12,2,12,0.00
2012-7-9,92,79,66,68,61,56,90,58,33,30.14,29.98,10,2,10,0.00
2012-7-10,89,76,66,61,57,52,81,53,31,30.24,30.08,9,2,9,0.00
2012-7-11,93,76,57,58,53,44,86,50,19,30.29,30.07,9,2,9,0.00
2012-7-12,96,79,60,64,60,56,88,56,32,30.20,29.98,7,1,7,0.00
2012-7-13,92,78,64,71,63,58,85,62,39,30.13,29.97,6,1,6,0.00
2012-7-14,96,81,73,71,68,63,88,67,39,30.11,29.90,8,1,8,0.00
2012-7-15,98,84,71,74,69,62,97,65,32,30.12,29.99,6,1,6,0.00
2012-7-16,102,87,71,73,69,64,91,58,32,30.05,29.83,14,2,14,0.01
2012-7-17,104,91,77,74,72,67,88,57,35,29.94,29.79,11,2,11,0.01
2012-7-18,95,78,70,78,72,69,99,84,53,30.12,29.87,14,2,14,1.96
2012-7-19,76,71,66,74,69,64,99,94,86,30.17,29.91,14,2,14,0.13
2012-7-20,85,73,64,65,62,59,92,71,46,30.24,29.87,6,1,6,0.00
2012-7-21,89,71,66,73,66,64,95,85,53,29.96,29.83,5,1,5,0.00
2012-7-22,92,84,78,73,72,70,78,67,51,29.83,29.70,7,1,7,0.00
2012-7-23,101,85,72,78,74,68,88,71,42,29.73,29.59,7,2,28,0.00
2012-7-24,83,76,71,78,71,64,98,85,71,29.82,29.62,14,1,14,0.56
2012-7-25,100,82,65,80,71,61,99,73,44,29.75,29.26,17,1,17,0.09
2012-7-26,92,79,70,77,69,61,99,75,43,29.55,29.34,16,1,16,0.40
2012-7-27,84,73,66,72,67,64,99,83,56,29.88,29.55,14,2,14,0.11
2012-7-28,88,73,61,70,65,60,99,77,45,30.02,29.88,3,0,4,0.00
2012-7-29,84,73,66,73,68,63,97,83,48,29.98,29.85,6,1,6,1.16
2012-7-30,93,80,66,75,71,66,99,76,51,29.88,29.65,17,1,17,0.04
2012-7-31,90,78,70,71,68,65,98,72,45,29.83,29.69,5,0,5,0.01
2012-8-1,94,78,65,74,68,64,99,75,43,29.87,29.65,5,1,5,0.00
2012-8-2,93,80,71,72,69,65,91,70,46,29.76,29.64,10,1,10,0.01
2012-8-3,96,81,68,74,70,66,97,71,44,29.79,29.66,6,1,6,0.00
2012-8-4,92,76,70,77,72,68,99,86,56,29.82,29.53,11,1,11,0.14
2012-8-5,81,70,62,69,60,54,99,74,43,30.06,29.82,12,1,12,0.01
2012-8-6,87,70,55,65,58,54,99,70,37,30.04,29.80,6,1,8,0.00
2012-8-7,93,77,64,70,63,59,88,64,45,29.81,29.63,7,2,7,0.00
2012-8-8,83,71,64,73,68,63,99,91,65,29.83,29.72,6,0,6,0.18
2012-8-10,78,61,57,56,54,52,89,78,46,29.97,29.91,3,0,3,0.18
2012-8-11,81,67,56,57,54,50,94,66,38,30.04,29.89,11,2,11,0.00
2012-8-12,81,66,55,63,58,54,99,78,46,30.01,29.89,5,0,5,0.00
2012-8-13,80,67,61,66,61,57,98,83,55,29.96,29.87,4,1,7,0.02
2012-8-14,84,70,58,69,62,58,99,77,47,29.93,29.77,8,1,8,0.00
2012-8-15,89,75,65,69,64,59,95,71,38,29.86,29.67,8,1,8,0.00
2012-8-16,78,70,64,70,63,55,99,80,56,29.92,29.59,13,1,13,0.56
2012-8-17,76,65,55,57,52,46,89,66,39,30.03,29.92,10,3,10,0.00
2012-8-18,79,64,50,60,52,48,99,72,35,30.03,29.86,7,1,7,0.00
2012-8-19,80,64,52,62,57,52,99,80,46,30.60,29.78,11,1,11,0.14
2012-8-20,77,60,52,64,53,47,99,81,39,30.00,29.89,2,0,2,0.00
2012-8-21,83,66,50,62,53,49,99,70,34,30.11,29.94,6,1,6,0.00
2012-8-22,89,71,53,62,57,52,96,66,35,30.10,29.89,6,1,6,0.00
2012-8-23,93,77,67,70,62,58,76,62,41,29.99,29.80,5,1,5,0.00
2012-8-24,94,77,68,70,63,60,84,64,36,29.93,29.76,5,1,6,0.00
2012-8-25,93,76,64,68,64,61,92,70,38,29.92,29.81,9,1,9,0.00
2012-8-26,140,140,140,100,100,100,99,99,99,29.98,29.91,0,0,0,0.12
2012-8-27,140,140,140,100,100,100,99,88,57,30.08,29.97,0,0,0,0.01
2012-9-23,61,53,39,39,35,31,87,53,33,29.92,29.72,8,2,8,0.96
2012-9-24,74,55,36,44,39,33,91,60,30,29.79,29.44,4,0,4,0.00
2012-9-25,82,62,47,54,48,42,91,62,31,30.16,29.39,2,0,2,0.00
2012-9-26,68,55,44,50,44,38,99,69,36,29.83,29.51,2,0,2,0.00
2012-9-27,68,50,37,48,42,37,99,77,44,29.93,29.82,3,0,3,0.00
2012-9-28,72,53,38,51,43,38,99,75,34,29.91,29.75,2,0,2,0.00
2012-9-29,80,59,44,54,44,40,99,65,25,29.77,29.59,3,0,4,0.00
2012-9-30,72,55,42,54,45,42,99,74,38,29.67,29.52,3,0,3,0.00
2012-10-1,67,54,41,54,47,41,99,81,54,29.58,29.44,7,0,7,0.00
2012-10-2,73,56,44,55,49,43,99,79,48,29.57,29.46,8,1,8,0.00
2012-10-3,73,55,43,58,50,42,99,84,49,29.62,29.53,8,1,8,0.00
2012-10-4,66,54,46,58,46,35,99,76,51,30.22,29.60,5,0,6,0.00
2012-10-5,54,44,37,37,32,28,82,62,42,30.08,30.00,11,2,11,0.00
2012-10-6,49,43,39,33,30,28,70,61,52,30.19,30.03,13,4,14,0.00
2012-10-7,54,42,35,30,24,18,66,51,25,30.21,30.03,9,2,10,0.00
2012-10-8,63,48,33,37,30,20,71,51,34,30.07,29.88,13,3,13,0.00
2012-10-9,63,49,42,46,40,35,96,73,49,30.04,29.84,11,3,11,0.13
2012-10-10,53,42,36,39,32,28,89,70,41,30.28,30.04,7,1,7,0.00
2012-10-11,65,48,39,43,33,24,70,57,41,30.43,30.16,14,4,14,0.00
2012-10-12,56,43,28,36,28,18,81,59,25,30.61,30.36,11,2,11,0.00
2012-10-13,61,53,42,61,52,35,99,95,69,30.37,29.84,4,0,4,0.52
2012-10-14,63,54,47,62,53,45,99,97,89,29.86,29.57,4,0,4,1.61
2012-10-15,60,48,41,45,42,40,98,81,51,30.06,29.86,5,0,5,0.01
2012-10-16,70,55,40,54,49,40,99,81,51,30.02,29.55,6,1,6,0.00
2012-10-17,68,56,51,57,53,49,99,89,63,29.57,29.36,8,1,8,0.43
2012-10-18,51,46,44,51,45,43,99,96,88,29.55,29.34,7,0,7,0.09
2012-10-19,52,46,44,47,44,43,99,94,81,29.82,29.54,5,0,5,0.11
2012-10-20,58,45,37,46,41,37,99,87,55,30.05,29.81,5,0,5,0.00
2012-10-21,70,50,36,52,45,35,99,84,53,30.17,30.01,4,0,4,0.00
2012-10-22,61,56,49,60,55,48,99,97,89,30.07,30.00,6,0,6,0.44
2012-10-23,66,60,55,65,60,9,99,98,97,30.04,29.92,6,0,6,0.04
2012-10-24,78,68,60,70,66,60,99,92,77,29.97,29.74,8,1,8,0.01
2012-10-25,70,57,40,66,54,34,99,91,79,30.14,29.58,21,6,21,0.38
2012-10-26,48,41,37,34,31,28,80,69,55,30.45,30.14,18,5,18,0.00
2012-10-27,45,37,30,28,24,20,74,59,43,30.45,29.82,12,2,12,0.00
2012-10-28,49,36,26,33,26,21,89,70,51,29.97,29.85,11,2,11,0.00
2012-10-29,50,38,27,34,28,23,92,67,37,29.99,29.73,14,3,14,0.00
2012-10-30,48,40,36,31,27,22,76,61,37,29.73,29.48,20,9,22,0.00
2012-10-31,49,39,32,36,27,19,83,63,33,29.53,29.34,16,6,16,0.00
2012-11-1,54,44,38,37,29,24,79,58,43,29.54,29.40,14,4,14,0.00
2012-11-2,46,36,32,32,29,26,89,75,55,29.79,29.54,8,2,10,0.00
2012-11-3,45,37,32,35,30,27,84,76,63,29.88,29.75,11,1,11,0.00
2012-11-4,47,37,27,34,29,22,82,73,56,30.05,29.79,7,2,7,0.00
2012-11-5,44,32,23,34,27,20,97,85,63,29.96,29.84,6,1,7,0.00
2012-11-6,38,35,27,38,34,25,99,96,88,29.86,29.63,5,1,7,0.11
2012-11-7,43,40,37,40,38,37,99,95,87,29.93,29.69,6,1,6,0.01
2012-11-8,45,40,34,39,37,32,96,89,73,29.97,29.91,5,0,5,0.00
2012-11-9,52,44,34,44,40,32,99,88,74,29.96,29.87,8,1,8,0.00
2012-11-10,67,58,47,56,51,44,91,80,67,29.92,29.56,13,4,13,0.00
2012-11-11,64,55,34,58,50,31,98,84,69,29.75,29.41,16,4,16,0.48
2012-11-12,34,28,25,31,20,16,90,70,61,30.16,29.75,11,0,11,0.01
2012-11-13,40,28,21,26,20,15,78,69,52,30.37,30.16,6,0,6,0.00
2012-11-14,48,38,30,33,28,23,76,68,52,30.36,30.25,11,3,11,0.00
2012-11-15,53,39,30,36,30,25,88,71,48,30.28,30.17,7,1,7,0.00
2012-11-16,46,36,28,40,32,25,94,88,79,30.43,30.28,7,1,7,0.00
2012-11-17,54,41,31,40,35,-6,99,80,52,30.46,30.20,8,1,8,0.00
2012-11-18,57,44,31,40,35,28,90,72,50,30.29,30.10,8,2,8,0.00
2012-11-19,54,48,39,45,40,34,87,75,61,30.12,29.79,6,1,6,0.50
2012-11-20,56,47,37,48,43,35,98,88,71,29.88,29.77,5,1,5,0.00
2012-11-21,56,44,33,49,40,32,99,88,67,29.92,29.72,8,2,8,0.00
2012-11-22,63,52,40,48,43,30,90,75,56,29.72,29.33,14,4,14,0.00
2012-11-23,40,31,26,30,20,14,72,63,57,30.02,29.52,18,8,18,0.00
2012-11-24,33,28,24,20,16,13,67,61,54,30.09,29.81,17,4,17,0.00
2012-11-25,39,31,22,27,21,15,80,66,56,30.03,29.69,13,3,13,0.00
2012-11-26,48,27,20,23,14,-48,71,59,43,30.32,30.01,97,4,97,0.00
2012-11-27,33,25,16,16,11,4,65,54,44,30.37,30.19,8,3,8,0.00
2012-11-28,42,32,26,26,20,13,70,61,48,30.37,30.04,6,2,6,0.00
2012-11-29,51,38,27,35,28,19,82,68,54,30.12,29.90,7,1,7,0.00
2012-11-30,45,40,38,40,36,33,89,84,77,30.10,29.95,10,3,10,0.00
2012-12-1,53,45,35,53,43,31,99,92,82,30.08,29.68,6,1,7,0.08
2012-12-2,54,47,30,52,44,17,98,89,59,29.99,29.70,4,1,4,0.01
2012-12-3,64,54,42,62,52,41,99,93,76,29.96,29.65,17,2,17,0.01
2012-12-4,54,44,29,43,32,16,86,64,47,30.33,29.87,15,4,15,0.00
2012-12-5,36,29,21,27,18,11,79,62,49,30.47,30.15,11,3,11,0.00
2012-12-6,46,39,32,38,33,27,87,79,72,30.17,29.82,8,3,10,0.00
2012-12-7,41,38,34,36,30,26,85,72,63,30.01,29.88,9,3,9,0.00
2012-12-8,39,34,30,31,27,24,85,78,67,30.08,29.88,10,3,10,0.00
2012-12-9,36,34,32,33,31,28,97,91,79,30.06,29.65,9,1,9,0.04
2012-12-10,34,31,28,33,27,23,97,86,76,29.92,29.67,6,0,6,0.04
2012-12-11,32,26,18,26,20,13,86,77,65,30.09,29.87,0,0,0,0.00
2012-12-12,43,34,25,31,26,20,83,72,60,30.24,30.09,12,2,12,0.17
2012-12-13,45,35,26,30,25,21,83,69,54,30.19,30.01,8,2,12,0.07
2012-12-14,48,35,23,36,28,20,92,78,57,30.23,29.94,6,1,6,0.01
2012-12-15,45,42,37,44,40,33,99,94,77,29.94,29.46,9,2,9,0.37
2012-12-16,45,41,37,44,39,33,99,94,86,29.68,29.48,11,2,11,0.06
2012-12-17,36,30,27,33,26,22,90,84,80,29.75,29.65,8,2,8,0.00
2012-12-18,32,30,27,30,27,22,96,90,82,29.82,29.57,7,1,7,0.00
2012-12-19,35,32,27,32,30,24,96,91,85,30.05,29.83,4,0,4,0.01
2012-12-20,34,32,28,33,32,28,99,99,96,29.85,29.25,5,0,5,0.00
2012-12-21,28,21,17,28,17,11,97,84,75,30.17,29.60,0,0,0,0.00
2012-12-22,28,17,9,21,11,3,85,79,67,30.23,29.91,0,0,0,0.00
2012-12-23,25,18,10,20,13,5,87,83,79,30.12,29.93,0,0,0,0.00
2012-12-24,25,22,16,20,17,12,88,83,76,30.12,29.92,0,0,0,0.00
2012-12-25,21,15,10,14,9,6,82,76,68,30.36,30.10,0,0,0,0.00
2012-12-26,27,22,18,21,17,11,86,81,75,30.31,30.09,8,0,8,0.00
2012-12-27,28,24,22,21,18,17,84,79,72,30.28,30.11,9,0,9,0.00
2012-12-28,32,27,24,29,24,19,91,87,83,30.13,29.93,0,0,0,0.00
2012-12-29,26,23,12,23,18,6,91,83,75,30.20,29.95,9,0,11,0.00
2012-12-30,51,15,6,26,10,0,86,77,69,30.35,29.76,6,0,7,0.00
2012-12-31,30,22,11,26,16,3,87,76,68,30.11,29.77,10,2,11,0.00
2013-1-1,17,10,5,5,0,-5,72,64,55,30.21,29.97,8,2,9,0.00